Regional Weather Roundup
Issued by NWS

Home | Current Version | Previous Version | Graphics & Text | Print | Product List | Glossary On
Versions: 1 2 3 4 5 6 7 8 9 10 11 12 13 14 15 16 17 18 19 20 21 22 23 24 25 26 27 28 29 30 31 32 33 34 35 36 37 38 39 40 41 42 43 44 45 46 47 48 49 50
000
ASUS43 KLOT 290210
RWRIL

ILLINOIS REGIONAL WEATHER ROUNDUP
NATIONAL WEATHER SERVICE CHICAGO/ROMEOVILLE IL
800 PM CST WED JAN 28 2015

NOTE: "FAIR" INDICATES FEW OR NO CLOUDS BELOW 12,000 FEET WITH NO
SIGNIFICANT WEATHER AND/OR OBSTRUCTIONS TO VISIBILITY.

* THESE STATIONS ARE NOT UNDER NWS QUALITY CONTROL. THEY ALSO MAY NOT
  REPORT WEATHER SUCH AS PRECIPITATION OR FOG.

ILZ001-002-007-009-015-016-024-290300-
NORTHWEST ILLINOIS

CITY           SKY/WX    TMP DP  RH WIND       PRES   REMARKS
MOLINE         CLOUDY    37  30  75 SE10      29.80F WCI  30
STERLING*      CLOUDY    34  28  80 SE10      29.86S WCI  26
SAVANNA*       CLOUDY    34  30  83 SE10      29.85S WCI  26
$$

ILZ003-004-008-010-011-017-018-290300-
NORTH CENTRAL ILLINOIS

CITY           SKY/WX    TMP DP  RH WIND       PRES   REMARKS
ROCKFORD       CLOUDY    32  24  72 S13G24    29.91S WCI  22
FREEPORT*      MOCLDY    32  27  83 SE8       29.89R WCI  24
ROCHELLE*      CLOUDY    31  26  81 S20G26    29.88F WCI  19
DE KALB*       CLOUDY    31  22  71 S24G33    29.88F WCI  17
PERU*          MOCLDY    34  29  82 S21       29.88F WCI  23
$$

ILZ005-006-012>014-019>023-290300-
NORTHEAST ILLINOIS

CITY           SKY/WX    TMP DP  RH WIND       PRES   REMARKS
CHICAGO-OHARE  CLOUDY    32  20  61 S17       29.91F WCI  21
CHICAGO-MIDWAY CLOUDY    35  21  56 S15G26    29.93F WCI  25
AURORA         CLOUDY    33  23  66 SE15G26   29.90F WCI  23
LANSING*       MOCLDY    32  21  63 S16       29.96F WCI  21
JOLIET*        MOCLDY    33  23  68 S9G18     29.94F WCI  25
WAUKEGAN       CLOUDY    31  23  72 SE18G26   29.91F WCI  19
DUPAGE AIRPORT MOCLDY    32  22  66 S20G25    29.90F WCI  20
KANKAKEE*      PTCLDY    33  24  70 SE13      29.97F WCI  24
WHEELING       CLOUDY    32  20  61 S14G22    29.94F WCI  22
MORRIS*        CLOUDY    33  26  73 S21G28    29.91F WCI  22
ROMEOVILLE*    MOCLDY    33  22  65 S17G24    29.92F WCI  21
NORTHERLY ISL    N/A     33  21  61 SE16        N/A  WCI  23
$$

LMZ740>746-290300-
SOUTHERN LAKE MICHIGAN

STATION/POSITION SKY/WX   TEMP    WIND        PRES    VSBY  WAVE
                          AIR SEA DIR/SP/G                  HT/PER
                          (F)     (DEG/KT/KT) (MB)    (MI)  (FT/S)
WAUKEGAN HARBOR            32     160/ 25/ 31   N/A
HARRISON CRIB              33     160/ 22/ 29   N/A
BURNHAM HARBOR             33     150/ 14/ 20   N/A
CALUMET HARBOR             33     140/ 14/ 20   N/A
MICHIGAN CITY              31     130/ 18/ 23   N/A
$$

ILZ025>027-034>036-040-047-049-050-058-095>099-290300-
WEST-CENTRAL ILLINOIS

CITY           SKY/WX    TMP DP  RH WIND       PRES   REMARKS
QUINCY         MOCLDY    45  32  60 S16G25    29.76F
GALESBURG*     CLOUDY    38  32  80 SE14G22   29.81S WCI  29
MACOMB*        CLOUDY    38  33  82 SE15      29.83F WCI  29
JACKSONVILLE*  CLOUDY    44  33  65 S16G22    29.85F
PITTSFIELD*    MOCLDY    43  33  69 SE12G18   29.83R
$$

ILZ028>032-037-038-041>044-048-051>054-059>061-290300-
CENTRAL ILLINOIS

CITY           SKY/WX    TMP DP  RH WIND       PRES   REMARKS
PONTIAC        MOCLDY    35  28  76 SE20G26   29.92F WCI  24
BLOOMINGTON    MOCLDY    35  29  79 S25G32    29.90F WCI  22
DECATUR        MOCLDY    37  27  67 S16G26    29.93F WCI  28
PEORIA         CLOUDY    38  30  73 S18G25    29.86F WCI  28
LACON*         CLOUDY    35  29  78 S10G22    29.87S WCI  27
LINCOLN*       CLOUDY    37  31  81 S16G24    29.91S WCI  27
SPRINGFIELD    CLOUDY    40  31  70 S23G32    29.89F
TAYLORVILLE    CLOUDY    37  32  81 S16G23    29.92S WCI  28
$$

ILZ033-039-045-046-055>057-062-063-290300-
EAST-CENTRAL ILLINOIS

CITY           SKY/WX    TMP DP  RH WIND       PRES   REMARKS
CHAMPAIGN      PTCLDY    35  25  66 SE22      29.95F WCI  23
DANVILLE*      PTCLDY    33  22  62 S14G20    29.97F WCI  24
RANTOUL*       MOCLDY    35  26  69 S20G25    29.95F WCI  24
MATTOON        PTCLDY    36  23  59 S26G32    29.95F WCI  24
PARIS*         PTCLDY    34  25  69 SE16      30.02F WCI  24
$$

ILZ079-100>102-290300-
SOUTHWEST ILLINOIS

CITY           SKY/WX    TMP DP  RH WIND       PRES   REMARKS
ALTON          CLEAR     41  32  70 S15G23    29.93F
BELLEVILLE     MOCLDY    41  33  74 S8G17     29.95F
CAHOKIA*       MOCLDY    44  34  67 S13G21    29.94F
SPARTA*        MOCLDY    41  32  70 SE14G20   29.97F
$$

ILZ064>066-069>071-074>076-080>082-084>086-088>090-092>094-290300-
SOUTH-CENTRAL ILLINOIS

CITY           SKY/WX    TMP DP  RH WIND       PRES   REMARKS
CARBONDALE     PTCLDY    42  30  62 S8        30.04F
CAIRO*         PTCLDY    43  30  60 SE3       30.07F
EFFINGHAM*     MOCLDY    37  24  59 SE14      30.01F WCI  28
MARION         PTCLDY    45  30  57 S10       30.05F
MT. VERNON     MOCLDY    39  28  65 SE7       30.03F WCI  34
CENTRALIA*     MOCLDY    41  29  63 SE17G23   29.97F
SALEM*         MOCLDY    43  31  62 SE12      29.99F
METROPOLIS*    PTCLDY    44  30  59 SE3       30.07S
$$

ILZ067-068-072-073-078-083-087-091-290300-
SOUTHEAST ILLINOIS

CITY           SKY/WX    TMP DP  RH WIND       PRES   REMARKS
LAWRENCEVILLE  MOCLDY    36  24  62 SE12      30.08F WCI  28
FLORA*         MOCLDY    37  28  71 SE12      30.03F WCI  29
FAIRFIELD*     MOCLDY    40  28  63 SE10      30.04F
HARRISBURG*    PTCLDY    37  32  81 SE6       30.08R WCI  33
ROBINSON*      PTCLDY    36  23  59 SE14      30.08S WCI  27
CARMI*         MOCLDY    39  31  71 SE9       30.08R WCI  33
$$

ABBREVIATIONS USED IN REMARKS
   TC - TEMPERATURE IN CELSIUS
  WCI - WIND CHILL INDEX
   HX - HEAT INDEX
  VSB - VISIBILITY
$$



USA.gov is the U.S. government's official web portal to all federal, state and local government web resources and services.